CW5619 Weather Reports


Display with metric or nautical units.
time (UTC)temp
F
wind
direction
speed
MPH
gust
MPH
rain 1hr
in
rain 24hr
in
rain mn
in
humidity
%
barometer
mb
20260506023904 70 225 2.0 7.0 0.00 0.21 0.12 34 1011.3
20260506022903 70 224 3.0 10.0 0.00 0.21 0.12 34 1011.1
20260506021903 70 228 3.0 8.0 0.00 0.21 0.12 34 1011.0
20260506021404 70 235 3.0 8.0 0.00 0.21 0.12 33 1010.8
20260506020904 70 231 3.0 12.0 0.00 0.21 0.12 33 1010.7
20260506020403 71 242 3.0 12.0 0.00 0.21 0.12 33 1010.6
20260506015403 71 228 3.0 10.0 0.00 0.22 0.12 31 1010.5
20260506014403 71 240 5.0 12.0 0.00 0.22 0.12 30 1010.4
20260506013904 72 239 5.0 12.0 0.00 0.23 0.12 28 1010.4
20260506013404 72 235 4.0 12.0 0.00 0.23 0.12 28 1010.3
20260506012903 72 241 6.0 12.0 0.00 0.23 0.12 28 1010.3
20260506012404 72 237 6.0 14.0 0.00 0.23 0.12 28 1010.3
20260506011904 73 232 6.0 14.0 0.00 0.23 0.12 28 1010.2
20260506011404 73 236 6.0 14.0 0.00 0.23 0.12 28 1010.2
20260506010403 73 236 6.0 16.0 0.00 0.23 0.12 29 1010.2
20260506005903 73 239 7.0 16.0 0.00 0.23 0.12 29 1010.1
20260506005403 73 230 7.0 16.0 0.00 0.23 0.12 29 1010.1
20260506004403 74 232 5.0 15.0 0.00 0.23 0.12 29 1010.1
20260506003904 74 253 9.0 15.0 0.00 0.23 0.12 28 1010.0
20260506002903 75 229 5.0 14.0 0.00 0.23 0.12 28 1009.9
20260506002404 75 237 5.0 14.0 0.00 0.23 0.12 28 1009.8
20260506001903 76 235 6.0 12.0 0.00 0.23 0.12 26 1009.9
20260506001404 76 236 5.0 17.0 0.00 0.23 0.12 26 1009.7
20260506000904 76 228 7.0 17.0 0.00 0.23 0.12 26 1009.8
20260505235903 77 235 6.0 14.0 0.00 0.23 0.12 26 1009.6
20260505235403 77 239 5.0 14.0 0.00 0.23 0.12 25 1009.6
20260505234903 77 198 5.0 14.0 0.00 0.23 0.12 26 1009.5
20260505234404 77 242 7.0 14.0 0.00 0.23 0.12 26 1009.4
20260505233903 77 233 5.0 15.0 0.00 0.23 0.12 26 1009.4
20260505233403 77 229 6.0 15.0 0.00 0.23 0.12 25 1009.4
20260505232903 78 231 6.0 15.0 0.00 0.23 0.12 25 1009.4
20260505232403 77 222 4.0 14.0 0.00 0.23 0.12 25 1009.3
20260505231903 78 219 6.0 14.0 0.00 0.23 0.12 25 1009.4
20260505231403 78 210 5.0 14.0 0.00 0.23 0.12 25 1009.4
20260505230903 78 237 6.0 12.0 0.00 0.23 0.12 26 1009.4
20260505230403 78 227 4.0 12.0 0.00 0.23 0.12 27 1009.4
20260505225404 78 229 6.0 16.0 0.00 0.23 0.12 26 1009.4
20260505224903 78 227 5.0 12.0 0.00 0.23 0.12 27 1009.4
20260505224403 77 233 4.0 12.0 0.00 0.23 0.12 28 1009.5
20260505223903 76 225 3.0 12.0 0.00 0.23 0.12 27 1009.6
20260505223403 76 231 5.0 14.0 0.00 0.23 0.12 29 1009.8
20260505222904 76 228 6.0 14.0 0.00 0.23 0.12 28 1009.7
20260505222404 76 204 5.0 13.0 0.00 0.23 0.12 28 1009.8
20260505221903 77 243 5.0 14.0 0.00 0.23 0.12 28 1009.9
20260505220903 78 199 3.0 12.0 0.00 0.23 0.12 28 1009.9
20260505220403 78 234 5.0 12.0 0.00 0.23 0.12 28 1009.9
20260505215904 77 263 4.0 12.0 0.00 0.23 0.12 28 1010.0
20260505215403 77 224 5.0 17.0 0.00 0.23 0.12 28 1010.1
20260505214904 78 236 7.0 17.0 0.00 0.23 0.12 28 1010.1
20260505214403 77 246 5.0 10.0 0.00 0.23 0.12 29 1010.1
20260505213404 77 222 4.0 12.0 0.00 0.23 0.12 30 1010.2
20260505211904 74 229 2.0 12.0 0.00 0.23 0.12 35 1010.5
20260505211403 75 228 4.0 12.0 0.00 0.23 0.12 35 1010.5
20260505210904 74 236 5.0 12.0 0.00 0.23 0.12 36 1010.6
20260505205903 76 234 6.0 13.0 0.00 0.23 0.12 39 1010.7
20260505204904 75 227 4.0 12.0 0.00 0.23 0.12 39 1010.6
20260505204403 76 245 3.0 8.0 0.00 0.23 0.12 40 1010.7
20260505203903 76 177 3.0 12.0 0.00 0.23 0.12 41 1010.8
20260505202904 76 217 4.0 12.0 0.00 0.23 0.12 37 1010.8
20260505201903 75 241 6.0 12.0 0.00 0.23 0.12 41 1010.9
20260505201404 75 231 3.0 12.0 0.00 0.23 0.12 42 1010.9
20260505200903 74 220 3.0 10.0 0.00 0.23 0.12 44 1010.9
20260505200403 74 244 2.0 10.0 0.00 0.23 0.12 41 1011.1
20260505195904 74 223 3.0 9.0 0.00 0.23 0.12 45 1011.1
20260505195404 75 239 3.0 9.0 0.00 0.23 0.12 43 1011.1
20260505194903 74 249 3.0 9.0 0.00 0.23 0.12 44 1011.0
20260505194404 75 221 2.0 10.0 0.00 0.23 0.12 45 1011.2
20260505193904 74 227 3.0 10.0 0.00 0.23 0.12 46 1011.3
20260505193404 73 237 4.0 12.0 0.00 0.23 0.12 48 1011.3
20260505192903 73 239 6.0 12.0 0.00 0.23 0.12 47 1011.2
20260505192404 74 245 5.0 10.0 0.00 0.23 0.12 47 1011.1
20260505191904 74 212 4.0 9.0 0.00 0.23 0.12 48 1011.2
20260505191403 72 257 2.0 12.0 0.00 0.23 0.12 50 1011.4
20260505190903 72 233 5.0 12.0 0.00 0.23 0.12 51 1011.6
20260505190403 73 216 2.0 8.0 0.00 0.23 0.12 50 1011.6
20260505185903 73 161 3.0 6.0 0.00 0.23 0.12 50 1011.6
20260505185403 72 246 1.0 6.0 0.00 0.23 0.12 53 1011.7
20260505184904 71 250 1.0 3.0 0.00 0.23 0.12 53 1011.7
20260505184403 71 345 2.0 3.0 0.00 0.23 0.12 54 1011.9
20260505183903 70 231 1.0 3.0 0.00 0.23 0.12 53 1011.7
20260505183404 70 309 2.0 5.0 0.00 0.23 0.12 52 1011.8
20260505182904 70 151 2.0 5.0 0.00 0.23 0.12 53 1011.9
20260505182404 71 160 1.0 3.0 0.00 0.23 0.12 55 1012.0
20260505181903 70 225 1.0 3.0 0.00 0.23 0.12 56 1012.0
20260505181403 68 255 1.0 3.0 0.00 0.23 0.12 57 1012.0
20260505180904 67 207 0.0 3.0 0.00 0.23 0.12 59 1012.1
20260505180404 68 238 1.0 3.0 0.00 0.23 0.12 58 1012.2
20260505175403 69 276 1.0 3.0 0.00 0.23 0.12 58 1012.4
20260505174403 67 245 1.0 3.0 0.00 0.23 0.12 59 1012.5
20260505173904 68 261 1.0 3.0 0.00 0.23 0.12 61 1012.4
20260505173403 67 48 0.0 3.0 0.00 0.23 0.12 61 1012.6
20260505172403 67 329 1.0 3.0 0.00 0.23 0.12 60 1012.6
20260505171903 67 192 1.0 3.0 0.00 0.23 0.12 58 1012.4
20260505171404 67 275 1.0 3.0 0.00 0.23 0.12 60 1012.5
20260505170403 66 192 1.0 3.0 0.00 0.23 0.12 60 1012.5
20260505165903 67 231 1.0 3.0 0.00 0.23 0.12 60 1012.4
20260505165404 67 206 2.0 3.0 0.00 0.23 0.12 61 1012.4
20260505164903 67 247 0.0 3.0 0.00 0.23 0.12 63 1012.4
20260505164404 66 198 0.0 5.0 0.00 0.23 0.12 62 1012.4
20260505163904 66 206 2.0 5.0 0.00 0.23 0.12 63 1012.5
20260505163403 65 225 2.0 3.0 0.00 0.23 0.12 64 1012.5
20260505162904 65 339 1.0 3.0 0.00 0.23 0.12 63 1012.3
20260505161904 65 229 1.0 5.0 0.00 0.23 0.12 64 1012.5
20260505161405 65 211 2.0 5.0 0.00 0.23 0.12 66 1012.5
20260505160903 64 155 1.0 3.0 0.00 0.23 0.12 68 1012.4
20260505160404 64 237 2.0 3.0 0.00 0.23 0.12 66 1012.4
20260505152404 64 186 1.0 3.0 0.00 0.23 0.12 73 1012.2
20260505151904 63 248 1.0 3.0 0.00 0.23 0.12 79 1012.4
20260505151404 63 254 1.0 3.0 0.00 0.23 0.12 79 1012.3
20260505150903 63 227 1.0 3.0 0.00 0.23 0.12 80 1012.4
20260505150403 62 225 1.0 3.0 0.00 0.23 0.12 80 1012.3
20260505140404 61 244 0.0 2.0 0.00 0.23 0.12 86 1012.2
20260505123903 59 221 0.0 2.0 0.00 0.23 0.12 86 1011.2
20260505123404 59 229 0.0 1.0 0.00 0.23 0.12 86 1011.1
20260505122403 59 229 0.0 1.0 0.00 0.23 0.12 86 1011.1
20260505121904 60 229 0.0 2.0 0.00 0.23 0.12 86 1011.2
20260505121404 59 229 1.0 2.0 0.00 0.23 0.12 85 1011.2
20260505120904 59 119 0.0 2.0 0.01 0.23 0.12 85 1011.2
20260505114903 59 102 0.0 6.0 0.01 0.23 0.12 85 1010.9
20260505113903 59 129 1.0 6.0 0.02 0.23 0.12 85 1010.7
20260505113403 59 107 2.0 3.0 0.02 0.23 0.12 85 1010.7
20260505112903 59 134 1.0 3.0 0.02 0.23 0.12 86 1010.9
20260505112403 59 197 0.0 2.0 0.02 0.23 0.12 86 1011.1
20260505111904 59 115 1.0 2.0 0.02 0.23 0.12 86 1011.1
20260505111404 59 170 1.0 5.0 0.03 0.23 0.12 86 1011.0
20260505110904 59 173 1.0 5.0 0.02 0.22 0.11 86 1011.0
20260505110403 59 120 2.0 3.0 0.02 0.22 0.11 86 1010.8
20260505101904 59 108 3.0 7.0 0.01 0.21 0.10 86 1011.6
20260505100404 60 139 1.0 9.0 0.00 0.20 0.09 85 1012.4
20260505095903 60 173 1.0 12.0 0.00 0.20 0.09 85 1012.2
20260505094903 60 150 2.0 12.0 0.01 0.20 0.09 85 1012.1
20260505094403 60 104 4.0 14.0 0.01 0.20 0.09 85 1011.9
20260505093904 60 159 4.0 14.0 0.01 0.20 0.09 85 1011.8
20260505093404 60 114 6.0 14.0 0.01 0.20 0.09 85 1011.8
20260505092903 60 137 2.0 10.0 0.01 0.20 0.09 85 1012.2
20260505091904 60 190 2.0 8.0 0.03 0.20 0.09 84 1012.2
20260505091404 60 101 3.0 8.0 0.03 0.20 0.09 84 1012.2
20260505090903 60 105 3.0 9.0 0.04 0.20 0.09 85 1012.1
20260505090404 60 112 2.0 9.0 0.04 0.20 0.09 85 1012.1
20260505084404 59 99 2.0 8.0 0.04 0.19 0.08 86 1012.5
20260505083904 59 106 2.0 8.0 0.05 0.19 0.08 86 1012.5
20260505083403 59 110 4.0 8.0 0.05 0.19 0.08 87 1012.8
20260505082904 59 125 3.0 8.0 0.06 0.19 0.08 87 1013.2
20260505081403 60 116 2.0 8.0 0.05 0.17 0.06 86 1013.7
20260505080904 60 94 2.0 8.0 0.04 0.16 0.05 86 1013.7
20260505080404 60 122 3.0 8.0 0.04 0.16 0.05 86 1014.0
20260505075904 60 114 2.0 7.0 0.05 0.16 0.05 87 1014.1
20260505075403 60 119 2.0 7.0 0.04 0.15 0.04 87 1014.4
20260505074904 60 117 1.0 7.0 0.05 0.15 0.04 87 1014.4
20260505074404 60 138 2.0 7.0 0.05 0.15 0.04 87 1014.2
20260505073904 60 134 2.0 8.0 0.04 0.14 0.03 87 1014.2
20260505072904 60 113 2.0 6.0 0.04 0.13 0.02 87 1014.5
20260505072404 60 102 0.0 3.0 0.04 0.12 0.01 87 1014.6
20260505071404 60 119 1.0 2.0 0.04 0.12 0.01 87 1014.5
20260505070903 60 120 0.0 3.0 0.04 0.12 0.01 86 1014.4
20260505070403 60 119 1.0 3.0 0.04 0.12 0.01 86 1014.2
20260505065404 60 113 1.0 3.0 0.03 0.11 0.11 86 1014.4
20260505064903 60 110 0.0 1.0 0.03 0.10 0.10 87 1014.6
20260505064404 60 110 0.0 2.0 0.03 0.10 0.10 86 1014.4
20260505063903 60 153 0.0 2.0 0.03 0.10 0.10 85 1014.4
20260505063403 61 175 0.0 1.0 0.02 0.09 0.09 84 1014.4
20260505062903 61 175 0.0 1.0 0.03 0.09 0.09 84 1014.3
20260505062403 61 183 0.0 1.0 0.02 0.08 0.08 83 1014.4
20260505061903 61 187 0.0 0.0 0.02 0.08 0.08 84 1014.5
20260505061403 61 187 0.0 0.0 0.02 0.08 0.08 83 1014.6
20260505060903 61 187 0.0 0.0 0.02 0.08 0.08 83 1014.6
20260505060403 61 187 0.0 0.0 0.02 0.08 0.08 82 1014.5
20260505055904 61 187 0.0 0.0 0.02 0.08 0.08 82 1014.5
20260505055404 61 187 0.0 3.0 0.02 0.08 0.08 81 1014.4
20260505054404 61 193 1.0 3.0 0.01 0.07 0.07 81 1014.2
20260505053904 60 219 1.0 2.0 0.01 0.07 0.07 81 1014.3
20260505053403 60 107 0.0 3.0 0.01 0.07 0.07 82 1014.2
20260505052904 60 73 1.0 3.0 0.00 0.06 0.06 81 1014.1
20260505052404 60 117 1.0 3.0 0.00 0.06 0.06 81 1014.2
20260505051904 60 93 1.0 3.0 0.01 0.06 0.06 83 1014.2
20260505051404 60 97 1.0 3.0 0.01 0.06 0.06 83 1014.1
20260505050903 59 101 0.0 2.0 0.01 0.06 0.06 84 1014.0
20260505040905 59 115 0.0 2.0 0.03 0.05 0.05 76 1014.3
20260505040403 60 187 0.0 2.0 0.02 0.04 0.04 72 1014.5
20260505035404 61 203 1.0 6.0 0.01 0.03 0.03 67 1014.6
20260505034903 62 158 2.0 6.0 0.00 0.02 0.02 62 1014.4
20260505034403 63 214 2.0 5.0 0.00 0.02 0.02 60 1014.3
20260505032904 63 230 1.0 3.0 0.00 0.02 0.02 59 1013.8
20260505032403 63 249 1.0 3.0 0.00 0.02 0.02 59 1013.5
20260505031904 63 161 1.0 7.0 0.00 0.02 0.02 58 1013.4
20260505031404 63 128 1.0 12.0 0.00 0.02 0.02 57 1013.0
20260505030905 64 104 5.0 13.0 0.00 0.02 0.02 55 1012.6
20260505025904 63 110 5.0 10.0 0.00 0.02 0.02 55 1012.8
20260505025403 63 120 4.0 10.0 0.01 0.02 0.02 55 1013.3
20260505024904 63 142 4.0 12.0 0.01 0.02 0.02 55 1013.4
20260505024404 63 105 3.0 12.0 0.01 0.02 0.02 56 1013.2